Starlink 32556

operational
NORAD ID: 61858 Int'l Des: 2024-202 Owner: SPXS Country: US Constellation: starlink
LEOCIRCULAR

Starlink 32556について

説明を読み込み中...

リアルタイム位置

3D地球を読み込み中...

次回通過

高度履歴

Altitude vs Time

uPlot chart will show altitude changes over time

軌道要素

1 61858U 24202P 26036.09567787 -.00000013 00000-0 90364-5 0 9996
2 61858 42.9996 61.9918 0000271 269.8358 90.2462 15.27572845 70358
Epoch: Feb 5, 2026 • Age: 9 hours

現在のステータス

高度 490.7 km
速度 7.62 km/s
衛星直下点 -29.33°S, 74.68°E
打ち上げ日 Nov 7, 2024
運用期間 1.2 years
タイプ internet

技術仕様

分類 Payload
質量 730.00 kg
乾燥質量 700.00 kg
総質量 730.00 kg
長さ 0.30 m
直径 4.10 m
スパン 29.00 m
形状 Box + pan
製造者 SPXS
バスタイプ Starlink V2M
フェーズステータス In Orbit
所有者/国 SPXS/US

大規模コンステレーション

Loading constellations...